Weather History for Sexton Summit, OR

Change the Weather History Date:

Tuesday, November 20, 2012

  Actual Average Record
Temperature  
Mean Temperature 41 °F -  
Max Temperature 45 °F 41 °F 64 °F (2002)
Min Temperature 37 °F 33 °F 26 °F (2003)
Degree Days  
Heating Degree Days 24    
Moisture  
Dew Point 42 °F    
Average Humidity 100    
Maximum Humidity 100    
Minimum Humidity 93    
Precipitation  
Precipitation 2.32 in - - ()
Sea Level Pressure  
Sea Level Pressure 29.74 in    
Wind  
Wind Speed 16 mph (South)    
Max Wind Speed 28 mph    
Max Gust Speed 61 mph    
Averages and records for this station are not official NWS values.
T = Trace of Precipitation, MM = Missing Value Source: NWS Daily Summary

Daily Weather History Graph

Daily Weather History Graph

Search for Another Location

Airport:

Trip Planner

Search our weather history database for the weather conditions in past years. The results will help you decide how hot, cold, wet, or windy it might be!

Date:

Astronomy

Nov. 20, 2012 Rise Set
Actual Time 7:11 AM PST 4:46 PM PST
Civil Twilight 6:40 AM PST 5:17 PM PST
Nautical Twilight 6:06 AM PST 5:51 PM PST
Astronomical Twilight 5:32 AM PST 6:25 PM PST
Moon 12:44 PM PST (11/20) No Moon Set
Length of Visible Light 10h 36m
Length of Day
9h 34m
First Quarter, 52% of the Moon is Illuminated
Nov 20
First Quarter
Nov 28
Full
Dec 6
Last Quarter
Dec 13
New
Dec 19
First Quarter

Hourly Weather History & Observations

Time (PST) Temp. Windchill Dew Point Humidity Pressure Visibility Wind Dir Wind Speed Gust Speed Precip Events Conditions
12:10 AM 42.8 °F 37.0 °F 42.8 °F 100% 29.77 in 1.2 mi South 10.4 mph 24.2 mph 0.07 in Rain Heavy Rain
12:14 AM 42.8 °F 36.6 °F 42.8 °F 100% 29.78 in 2.0 mi SSE 11.5 mph 24.2 mph 0.08 in Rain Rain
12:19 AM 42.8 °F 38.0 °F 42.8 °F 100% 29.79 in 1.2 mi SSW 8.1 mph 26.5 mph 0.10 in Rain Rain
12:28 AM 42.8 °F 40.1 °F 42.8 °F 100% 29.79 in 0.5 mi Variable 4.6 mph - 0.15 in Fog , Rain Heavy Rain
12:56 AM 43.0 °F 34.5 °F 43.0 °F 100% 29.77 in 1.2 mi SW 19.6 mph 38.0 mph 0.33 in Rain Rain
12:59 AM 42.8 °F 34.3 °F 42.8 °F 100% 29.77 in 1.5 mi South 19.6 mph 38.0 mph 0.01 in Rain Rain
1:04 AM 44.6 °F 36.6 °F 42.8 °F 93% 29.77 in 2.0 mi SSW 19.6 mph 38.0 mph 0.03 in Rain Rain
1:11 AM 44.6 °F 36.9 °F 44.6 °F 100% 29.77 in 1.8 mi SSW 18.4 mph 38.0 mph 0.05 in Rain Rain
1:17 AM 44.6 °F 37.4 °F 44.6 °F 100% 29.77 in 0.8 mi SSW 16.1 mph 38.0 mph 0.07 in Rain Rain
1:34 AM 44.6 °F 36.9 °F 44.6 °F 100% 29.76 in 0.5 mi SSW 18.4 mph 35.7 mph 0.14 in Fog , Rain Rain
1:43 AM 44.6 °F 36.4 °F 44.6 °F 100% 29.76 in 0.2 mi SSW 20.7 mph 32.2 mph 0.17 in Fog , Rain Heavy Rain
1:56 AM 45.0 °F 36.9 °F 45.0 °F 100% 29.71 in 0.2 mi SSW 20.7 mph 34.5 mph 0.20 in Fog , Rain Rain
2:04 AM 44.6 °F 36.4 °F 44.6 °F 100% 29.73 in 0.5 mi South 20.7 mph 41.4 mph 0.02 in Fog , Rain Rain
2:29 AM 44.6 °F 37.4 °F 44.6 °F 100% 29.74 in 0.2 mi South 16.1 mph 26.5 mph 0.06 in Fog , Rain Light Rain
2:42 AM 44.6 °F 35.7 °F 44.6 °F 100% 29.74 in 0.5 mi South 24.2 mph 39.1 mph 0.08 in Fog , Rain Rain
2:56 AM 45.0 °F 36.9 °F 45.0 °F 100% 29.73 in 0.5 mi South 20.7 mph 35.7 mph 0.11 in Fog , Rain Light Rain
3:18 AM 44.6 °F 38.4 °F 44.6 °F 100% 29.73 in 0.2 mi SSW 12.7 mph 29.9 mph 0.04 in Fog , Rain Rain
3:27 AM 44.6 °F 37.4 °F 44.6 °F 100% 29.73 in 0.2 mi SSW 16.1 mph 26.5 mph 0.07 in Fog , Rain Heavy Rain
3:56 AM 45.0 °F 37.4 °F 45.0 °F 100% 29.71 in 0.2 mi South 18.4 mph 40.3 mph 0.22 in Fog , Rain Light Rain
4:56 AM 45.0 °F 36.4 °F 45.0 °F 100% 29.70 in 0.2 mi South 23.0 mph 34.5 mph 0.25 in Fog , Rain Rain
5:56 AM 45.0 °F 37.6 °F 45.0 °F 100% 29.67 in 0.2 mi SSW 17.3 mph 25.3 mph 0.27 in Fog , Rain Heavy Rain
6:30 AM 44.6 °F 36.1 °F 44.6 °F 100% 29.67 in 0.5 mi South 21.9 mph 46.0 mph 0.22 in Fog , Rain Heavy Rain
6:54 AM 44.6 °F 35.1 °F 44.6 °F 100% 29.64 in 0.5 mi South 27.6 mph 61.0 mph 0.40 in Fog , Rain Heavy Rain
6:56 AM 45.0 °F 36.0 °F 45.0 °F 100% 29.63 in 0.5 mi SSW 25.3 mph 61.0 mph 0.41 in Fog , Rain Heavy Rain
7:10 AM 44.6 °F 36.6 °F 44.6 °F 100% 29.69 in 0.2 mi SSW 19.6 mph 36.8 mph 0.07 in Fog , Rain Heavy Rain
7:56 AM 44.1 °F 37.7 °F 44.1 °F 100% 29.73 in 0.2 mi SSW 12.7 mph 27.6 mph 0.35 in Fog , Rain Rain
8:56 AM 43.0 °F 35.7 °F 43.0 °F 100% 29.75 in 0.2 mi South 15.0 mph 26.5 mph 0.04 in Fog , Rain Light Rain
9:56 AM 42.1 °F 34.2 °F 42.1 °F 100% 29.78 in 0.2 mi South 16.1 mph 26.5 mph 0.00 in Fog , Rain Light Rain
10:56 AM 41.0 °F 33.1 °F 41.0 °F 100% 29.80 in 0.2 mi South 15.0 mph 25.3 mph 0.00 in Fog , Rain Light Rain
11:56 AM 41.0 °F 33.9 °F 41.0 °F 100% 29.77 in 0.2 mi South 12.7 mph 20.7 mph 0.02 in Fog , Rain Light Rain
12:56 PM 42.1 °F 35.2 °F 42.1 °F 100% 29.77 in 0.2 mi South 12.7 mph 24.2 mph 0.00 in Fog , Rain Light Rain
1:56 PM 41.0 °F 33.5 °F 41.0 °F 100% 29.78 in 0.2 mi South 13.8 mph 25.3 mph 0.03 in Fog , Rain Light Rain
2:56 PM 41.0 °F 33.1 °F 41.0 °F 100% 29.78 in 0.2 mi South 15.0 mph 24.2 mph 0.00 in Fog Fog
3:56 PM 39.9 °F 31.8 °F 39.9 °F 100% 29.78 in 0.2 mi South 15.0 mph 29.9 mph 0.00 in Fog Fog
4:56 PM 39.9 °F 30.8 °F 39.9 °F 100% 29.75 in 0.2 mi South 18.4 mph 33.4 mph 0.00 in Fog , Rain Light Rain
5:56 PM 39.9 °F 31.4 °F 39.9 °F 100% 29.73 in 0.5 mi South 16.1 mph 27.6 mph 0.00 in Fog Fog
6:04 PM 39.2 °F 31.6 °F 39.2 °F 100% 29.74 in 0.2 mi South 12.7 mph 23.0 mph N/A Fog Fog
6:56 PM 39.9 °F 32.5 °F 39.0 °F 97% 29.73 in 0.2 mi South 12.7 mph 21.9 mph 0.04 in Fog , Rain Light Rain
7:56 PM 39.0 °F 31.8 °F 39.0 °F 100% 29.74 in 0.2 mi South 11.5 mph 20.7 mph 0.01 in Fog , Rain Light Rain
8:56 PM 39.0 °F 31.8 °F 39.0 °F 100% 29.75 in 0.2 mi South 11.5 mph 23.0 mph 0.02 in Fog , Rain Light Rain
9:56 PM 37.9 °F 28.5 °F 37.9 °F 100% 29.71 in 0.2 mi South 17.3 mph 31.1 mph 0.00 in Fog , Rain Light Rain
10:01 PM 37.4 °F 28.2 °F 37.4 °F 100% 29.70 in 0.5 mi South 16.1 mph 31.1 mph 0.00 in Fog , Rain Light Rain
10:31 PM 39.2 °F 29.6 °F 37.4 °F 93% 29.68 in 0.2 mi South 19.6 mph 33.4 mph 0.00 in Fog , Rain Light Rain
10:40 PM 39.2 °F 29.0 °F 39.2 °F 100% 29.68 in 0.2 mi South 21.9 mph 33.4 mph 0.00 in Fog , Rain Light Rain
10:56 PM 39.0 °F 28.5 °F 39.0 °F 100% 29.68 in 0.2 mi SSW 23.0 mph 39.1 mph 0.01 in Fog , Rain Light Rain
11:56 PM 39.0 °F 28.5 °F 37.9 °F 96% 29.68 in 0.2 mi South 23.0 mph 39.1 mph 0.01 in Fog , Rain Light Rain